Tracking 28794 objects as of 22-Apr-2024
HD Live streaming from Space Station
objects crossing your sky now

SL-12 R/B(2)

Track SL-12 R/B(2) now!


NORAD ID: 14595
Int'l Code: 1983-127F
Perigee: 18,903.5 km
Apogee: 19,237.5 km
Inclination: 66.5 °
Period: 673.1 minutes
Semi major axis: 25441 km
RCS: 2.0988 m2 (large)
Launch date: December 29, 1983
Source: Commonwealth of Independent States (former USSR) (CIS)
Launch site: TYURATAM MISSILE AND SPACE COMPLEX (TTMTR)

Note: This is a ROCKET BODY
Your satellite tracking list
Your tracking list is empty




NASA's NSSDC Master Catalog

Two Line Element Set (TLE):
1 14595U 83127F   24112.18863781 -.00000059  00000-0  00000-0 0  9992
2 14595  66.5491 349.9174 0065632 191.0566 341.0981  2.13938196254553
Source of the keplerian elements: AFSPC